Weather in Yarkoye

Russia / Republic of Crimea     45°41′30″N   34°15′39″E
temp.,
°C
wind,
m/s
gust,
m/s
humid.,
%
clouds,
%
prec.,
mm/h
press.,
hPa
HPBL,
m
1 march, mon
mon100:00+3wnw3585100 0.1 1024289
03:00+2w349199 0.1 1024121
06:00+1w229196 0.1 102441
09:00+2nw237697 0.1 1025255
12:00+5n335982 0.0 10261048
15:00+6nne335587 0.1 10261175
18:00+5nne336397 0.1 1027804
21:00+3ene137696 0.1 1029210
2 march, tue
tue200:00+3nne247583 0.1 1030110
03:00+3nne357391 0.1 1031204
06:000n22825 0.0 103022
09:00+2wnw237110 0.0 1031202
12:00+6wnw455333 0.0 10301227
15:00+6w675250 0.0 10281083
18:00+4w7106215 0.0 1026781
21:00+3wsw7127158 0.0 1025549
3 march, wed
wed300:00+3wsw815790 0.0 1023488
03:00+4wsw7158338 0.0 1021490
06:00+3nw4118833 0.0 1021418
09:00+4nnw6107666 0.0 1023841
12:00+6nnw785766 0.0 10251227
15:00+8nnw684733 0.0 10251189
18:00+7nnw47520 0.0 1026637
21:00+4n22660 0.0 102822
4 march, thu
thu400:00+2ene11700 0.0 102822
03:00+1ssw22720 0.0 102822
06:00+1ssw23760 0.0 102726
09:00+3ssw45650 0.0 1026201
12:00+9sw56480 0.0 10251291
15:00+10sw67450 0.0 10221448
18:00+7sw58520 0.0 1020888
21:00+4sw411760 0.0 1020458
5 march, fri
fri500:00+3ssw512830 0.0 1019496
03:00+3ssw513830 0.0 1018491
06:00+3ssw513860 0.0 1017433
09:00+6sw712770 0.0 1017533
12:00+10sw710600 0.0 1016702
15:00+12sw79540 0.0 1015895
18:00+9sw611630 0.0 1014649
21:00+7ssw614780 0.0 1014451